Yaogan Weixing 25 fu xing yi

operational
NORAD ID: 40339 Int'l Des: 2014-080 Owner: ZZB Country: CN Constellation: yaogan
LEO

Yaogan Weixing 25 fu xing yiについて

説明を読み込み中...

リアルタイム位置

3D地球を読み込み中...

次回通過

高度履歴

Altitude vs Time

uPlot chart will show altitude changes over time

軌道要素

1 40339U 14080B 26063.61886419 -.00000053 00000-0 43672-4 0 9997
2 40339 63.3869 220.3110 0357721 8.4572 352.2268 13.45424887551562
Epoch: Mar 4, 2026 • Age: 21 hours

現在のステータス

高度 1351.7 km
速度 7.06 km/s
衛星直下点 -22.36°S, 69.52°W
打ち上げ日 Dec 10, 2014
運用期間 11.2 years
タイプ military

技術仕様

分類 Payload
質量 500.00 kg
乾燥質量 500.00 kg
総質量 500.00 kg
長さ 0.50 m
直径 0.50 m
スパン 1.00 m
形状 Box + 2 Pan
製造者 CAST
フェーズステータス In Orbit
所有者/国 ZZB/CN

大規模コンステレーション

Loading constellations...